| time (UTC) | temp F | wind direction | speed MPH | gust MPH | rain 1hr in | rain 24hr in | rain mn in | humidity % | barometer mb |
| 20260510070502 | 56 | 23 | 3.0 | 5.0 | 0.00 | 0.00 | 0.00 | 65 | 1011.6 |
| 20260510070004 | 56 | 46 | 3.0 | 5.0 | 0.00 | 0.00 | 0.00 | 66 | 1011.6 |
| 20260510065500 | 56 | 28 | 3.0 | 5.0 | 0.00 | 0.00 | 0.00 | 66 | 1011.7 |
| 20260510064500 | 56 | 23 | 3.0 | 7.0 | 0.00 | 0.00 | 0.00 | 65 | 1011.7 |
| 20260510063500 | 56 | 25 | 4.0 | 9.0 | 0.00 | 0.00 | 0.00 | 64 | 1011.9 |
| 20260510062959 | 56 | 20 | 4.0 | 7.0 | 0.00 | 0.00 | 0.00 | 64 | 1011.9 |
| 20260510062501 | 56 | 11 | 4.0 | 7.0 | 0.00 | 0.00 | 0.00 | 65 | 1011.7 |
| 20260510062001 | 56 | 23 | 2.0 | 5.0 | 0.00 | 0.00 | 0.00 | 66 | 1011.7 |
| 20260510061459 | 57 | 37 | 2.0 | 5.0 | 0.00 | 0.00 | 0.00 | 65 | 1011.6 |
| 20260510061000 | 57 | 34 | 3.0 | 5.0 | 0.00 | 0.00 | 0.00 | 63 | 1011.4 |
| 20260510060501 | 57 | 23 | 3.0 | 5.0 | 0.00 | 0.00 | 0.00 | 65 | 1011.7 |
| 20260510060005 | 57 | 360 | 3.0 | 5.0 | 0.00 | 0.00 | 0.00 | 65 | 1011.5 |
| 20260510055500 | 57 | 22 | 3.0 | 5.0 | 0.00 | 0.00 | 0.00 | 63 | 1011.6 |
| 20260510055000 | 57 | 25 | 2.0 | 4.0 | 0.00 | 0.00 | 0.00 | 64 | 1011.4 |
| 20260510054459 | 57 | 13 | 3.0 | 5.0 | 0.00 | 0.00 | 0.00 | 64 | 1011.3 |
| 20260510054002 | 57 | 22 | 3.0 | 5.0 | 0.00 | 0.00 | 0.00 | 62 | 1011.2 |
| 20260510053500 | 57 | 64 | 3.0 | 6.0 | 0.00 | 0.00 | 0.00 | 62 | 1011.2 |
| 20260510052959 | 58 | 44 | 3.0 | 6.0 | 0.00 | 0.00 | 0.00 | 63 | 1011.2 |
| 20260510052501 | 58 | 51 | 3.0 | 7.0 | 0.00 | 0.00 | 0.00 | 61 | 1011.0 |
| 20260510051500 | 58 | 30 | 3.0 | 7.0 | 0.00 | 0.00 | 0.00 | 62 | 1010.9 |
| 20260510051000 | 58 | 20 | 3.0 | 7.0 | 0.00 | 0.00 | 0.00 | 61 | 1010.8 |
| 20260510050500 | 58 | 34 | 4.0 | 7.0 | 0.00 | 0.00 | 0.00 | 61 | 1010.8 |
| 20260510050006 | 59 | 357 | 4.0 | 8.0 | 0.00 | 0.00 | 0.00 | 60 | 1010.8 |
| 20260510044502 | 59 | 38 | 5.0 | 9.0 | 0.00 | 0.00 | 0.00 | 61 | 1010.6 |
| 20260510044002 | 60 | 30 | 4.0 | 9.0 | 0.00 | 0.00 | 0.00 | 61 | 1010.5 |
| 20260510043502 | 60 | 20 | 4.0 | 8.0 | 0.00 | 0.00 | 0.00 | 62 | 1010.5 |
| 20260510043001 | 61 | 2 | 4.0 | 5.0 | 0.00 | 0.00 | 0.00 | 62 | 1010.5 |
| 20260510042001 | 61 | 328 | 2.0 | 5.0 | 0.00 | 0.00 | 0.00 | 66 | 1010.3 |
| 20260510041501 | 61 | 301 | 2.0 | 5.0 | 0.00 | 0.00 | 0.00 | 67 | 1010.3 |
| 20260510041001 | 61 | 300 | 3.0 | 8.0 | 0.00 | 0.00 | 0.00 | 65 | 1010.2 |
| 20260510040501 | 61 | 271 | 4.0 | 8.0 | 0.00 | 0.00 | 0.00 | 67 | 1010.1 |
| 20260510040009 | 61 | 283 | 3.0 | 4.0 | 0.00 | 0.00 | 0.00 | 69 | 1010.1 |
| 20260510035504 | 62 | 278 | 2.0 | 4.0 | 0.00 | 0.00 | 0.00 | 68 | 1010.0 |
| 20260510035005 | 62 | 286 | 3.0 | 8.0 | 0.00 | 0.00 | 0.00 | 67 | 1010.0 |
| 20260510034504 | 63 | 294 | 4.0 | 8.0 | 0.00 | 0.00 | 0.00 | 64 | 1009.9 |
| 20260510034003 | 63 | 275 | 3.0 | 5.0 | 0.00 | 0.00 | 0.00 | 65 | 1009.8 |
| 20260510033506 | 63 | 283 | 3.0 | 6.0 | 0.00 | 0.00 | 0.00 | 64 | 1009.8 |
| 20260510033005 | 64 | 280 | 4.0 | 6.0 | 0.00 | 0.00 | 0.00 | 62 | 1009.9 |
| 20260510031002 | 65 | 249 | 5.0 | 9.0 | 0.00 | 0.00 | 0.00 | 66 | 1009.5 |
| 20260510030505 | 65 | 269 | 5.0 | 8.0 | 0.00 | 0.00 | 0.00 | 68 | 1009.5 |
| 20260510025502 | 65 | 256 | 4.0 | 7.0 | 0.00 | 0.00 | 0.00 | 70 | 1009.4 |
| 20260510025001 | 65 | 257 | 3.0 | 7.0 | 0.00 | 0.00 | 0.00 | 70 | 1009.4 |
| 20260510024502 | 65 | 237 | 3.0 | 6.0 | 0.00 | 0.00 | 0.00 | 70 | 1009.4 |
| 20260510024003 | 64 | 260 | 4.0 | 7.0 | 0.00 | 0.00 | 0.00 | 69 | 1009.3 |
| 20260510023503 | 65 | 242 | 4.0 | 6.0 | 0.00 | 0.00 | 0.00 | 71 | 1009.3 |
| 20260510023002 | 64 | 250 | 4.0 | 6.0 | 0.00 | 0.00 | 0.00 | 71 | 1009.3 |
| 20260510022502 | 64 | 234 | 2.0 | 4.0 | 0.00 | 0.00 | 0.00 | 71 | 1009.2 |
| 20260510022004 | 64 | 226 | 2.0 | 5.0 | 0.00 | 0.00 | 0.00 | 71 | 1009.1 |
| 20260510021001 | 65 | 246 | 2.0 | 4.0 | 0.00 | 0.00 | 0.00 | 71 | 1008.9 |
| 20260510020502 | 65 | 263 | 2.0 | 6.0 | 0.00 | 0.00 | 0.00 | 70 | 1008.9 |
| 20260510020005 | 65 | 261 | 3.0 | 6.0 | 0.00 | 0.00 | 0.00 | 70 | 1008.8 |
| 20260510015501 | 65 | 253 | 4.0 | 6.0 | 0.00 | 0.00 | 0.00 | 70 | 1008.8 |
| 20260510014501 | 65 | 271 | 4.0 | 8.0 | 0.00 | 0.00 | 0.00 | 71 | 1008.6 |
| 20260510014001 | 64 | 285 | 6.0 | 8.0 | 0.00 | 0.00 | 0.00 | 72 | 1008.5 |
| 20260510013502 | 65 | 304 | 3.0 | 5.0 | 0.00 | 0.00 | 0.00 | 74 | 1008.5 |
| 20260510013004 | 65 | 277 | 3.0 | 5.0 | 0.00 | 0.00 | 0.00 | 73 | 1008.1 |
| 20260510012501 | 65 | 270 | 2.0 | 5.0 | 0.00 | 0.00 | 0.00 | 72 | 1007.9 |
| 20260510012002 | 66 | 237 | 3.0 | 6.0 | 0.00 | 0.00 | 0.00 | 71 | 1007.8 |
| 20260510011502 | 66 | 217 | 3.0 | 7.0 | 0.00 | 0.00 | 0.00 | 71 | 1007.6 |
| 20260510011003 | 66 | 243 | 4.0 | 7.0 | 0.00 | 0.00 | 0.00 | 70 | 1007.6 |
| 20260510010503 | 66 | 236 | 4.0 | 7.0 | 0.00 | 0.00 | 0.00 | 70 | 1007.5 |
| 20260510010006 | 66 | 237 | 4.0 | 8.0 | 0.00 | 0.00 | 0.00 | 70 | 1007.5 |
| 20260510005501 | 66 | 229 | 4.0 | 8.0 | 0.00 | 0.00 | 0.00 | 69 | 1007.3 |
| 20260510005002 | 67 | 221 | 4.0 | 8.0 | 0.00 | 0.00 | 0.00 | 68 | 1007.4 |
| 20260510004502 | 67 | 238 | 4.0 | 9.0 | 0.00 | 0.00 | 0.00 | 67 | 1007.3 |
| 20260510004001 | 67 | 239 | 4.0 | 9.0 | 0.00 | 0.00 | 0.00 | 66 | 1007.2 |
| 20260510003502 | 67 | 233 | 5.0 | 9.0 | 0.00 | 0.00 | 0.00 | 65 | 1007.2 |
| 20260510002503 | 68 | 247 | 5.0 | 12.0 | 0.00 | 0.00 | 0.00 | 63 | 1007.1 |
| 20260510002002 | 68 | 242 | 7.0 | 12.0 | 0.00 | 0.00 | 0.00 | 62 | 1007.1 |
| 20260510000501 | 69 | 221 | 7.0 | 12.0 | 0.00 | 0.00 | 0.00 | 61 | 1006.8 |
| 20260510000005 | 69 | 236 | 6.0 | 13.0 | 0.00 | 0.00 | 0.00 | 60 | 1006.8 |
| 20260509235501 | 69 | 242 | 8.0 | 13.0 | 0.00 | 0.00 | 0.00 | 59 | 1006.8 |
| 20260509234004 | 70 | 255 | 8.0 | 14.0 | 0.00 | 0.00 | 0.00 | 58 | 1006.8 |
| 20260509233502 | 70 | 233 | 7.0 | 14.0 | 0.00 | 0.00 | 0.00 | 58 | 1006.7 |
| 20260509232502 | 70 | 243 | 9.0 | 14.0 | 0.00 | 0.00 | 0.00 | 1006.7 | |
| 20260509232004 | 70 | 266 | 10.0 | 14.0 | 0.00 | 0.00 | 0.00 | 56 | 1006.7 |
| 20260509231501 | 70 | 241 | 10.0 | 17.0 | 0.00 | 0.00 | 0.00 | 56 | 1006.7 |
| 20260509225503 | 71 | 274 | 10.0 | 17.0 | 0.00 | 0.01 | 0.00 | 100 | 1006.5 |
| 20260509225002 | 0 | 266 | 10.0 | 19.0 | 0.00 | 0.01 | 0.00 | 1006.4 | |
| 20260509224501 | 71 | 236 | 11.0 | 19.0 | 0.00 | 0.01 | 0.00 | 54 | 1006.4 |
| 20260509224001 | 0 | 265 | 10.0 | 16.0 | 0.00 | 0.01 | 0.00 | 55 | 1006.5 |
| 20260509223502 | 70 | 297 | 8.0 | 15.0 | 0.00 | 0.01 | 0.00 | 57 | 1006.6 |
| 20260509222502 | 70 | 238 | 10.0 | 18.0 | 0.00 | 0.01 | 0.00 | 57 | 1006.7 |
| 20260509221501 | 0 | 300 | 10.0 | 15.0 | 0.00 | 0.01 | 0.00 | 1006.5 | |
| 20260509221002 | 0 | 241 | 8.0 | 14.0 | 0.00 | 0.01 | 0.00 | 1006.5 | |
| 20260509220504 | 0 | 232 | 9.0 | 15.0 | 0.00 | 0.01 | 0.00 | 1006.4 | |
| 20260509220006 | 71 | 271 | 10.0 | 18.0 | 0.00 | 0.01 | 0.00 | 52 | 1006.4 |
| 20260509215501 | 71 | 245 | 10.0 | 18.0 | 0.00 | 0.06 | 0.00 | 52 | 1006.3 |
| 20260509215002 | 71 | 290 | 10.0 | 18.0 | 0.00 | 0.06 | 0.00 | 100 | 1006.3 |
| 20260509214502 | 0 | 231 | 12.0 | 18.0 | 0.00 | 0.06 | 0.00 | 100 | 1006.4 |
| 20260509213504 | 72 | 258 | 11.0 | 17.0 | 0.00 | 0.06 | 0.00 | 54 | 1006.2 |
| 20260509213002 | 0 | 236 | 10.0 | 21.0 | 0.00 | 0.06 | 0.00 | 1006.2 | |
| 20260509212501 | 0 | 262 | 12.0 | 21.0 | 0.00 | 0.06 | 0.00 | 1006.3 | |
| 20260509212003 | 0 | 271 | 9.0 | 20.0 | 0.00 | 0.06 | 0.00 | 1006.3 | |
| 20260509211503 | 71 | 256 | 13.0 | 20.0 | 0.00 | 0.06 | 0.00 | 55 | 1006.3 |
| 20260509211002 | 71 | 269 | 11.0 | 20.0 | 0.00 | 0.06 | 0.00 | 56 | 1006.5 |
| 20260509210501 | 0 | 276 | 14.0 | 20.0 | 0.00 | 0.06 | 0.00 | 56 | 1006.4 |
| 20260509210005 | 71 | 267 | 10.0 | 19.0 | 0.00 | 0.06 | 0.00 | 57 | 1006.4 |
| 20260509205503 | 71 | 254 | 11.0 | 19.0 | 0.00 | 0.11 | 0.00 | 57 | 1006.4 |
| 20260509205001 | 71 | 233 | 11.0 | 20.0 | 0.00 | 0.11 | 0.00 | 57 | 1006.3 |
| 20260509204001 | 71 | 258 | 15.0 | 22.0 | 0.00 | 0.11 | 0.00 | 56 | 1006.4 |
| 20260509203502 | 0 | 215 | 12.0 | 20.0 | 0.00 | 0.11 | 0.00 | 1006.3 | |
| 20260509203002 | 0 | 250 | 12.0 | 24.0 | 0.00 | 0.11 | 0.00 | 1006.4 | |
| 20260509202501 | 71 | 273 | 14.0 | 24.0 | 0.00 | 0.11 | 0.00 | 53 | 1006.5 |
| 20260509202001 | 71 | 243 | 13.0 | 21.0 | 0.00 | 0.11 | 0.00 | 54 | 1006.5 |
| 20260509201501 | 71 | 254 | 13.0 | 22.0 | 0.00 | 0.11 | 0.00 | 54 | 1006.4 |
| 20260509200501 | 71 | 267 | 11.0 | 21.0 | 0.00 | 0.11 | 0.00 | 55 | 1006.5 |
| 20260509200005 | 0 | 213 | 13.0 | 21.0 | 0.00 | 0.11 | 0.00 | 1006.4 | |
| 20260509195501 | 70 | 248 | 11.0 | 19.0 | 0.00 | 0.16 | 0.00 | 57 | 1006.5 |
| 20260509195001 | 71 | 275 | 14.0 | 19.0 | 0.00 | 0.16 | 0.00 | 55 | 1006.6 |
| 20260509194501 | 70 | 236 | 13.0 | 22.0 | 0.00 | 0.16 | 0.00 | 59 | 1006.6 |
| 20260509194004 | 70 | 255 | 14.0 | 22.0 | 0.00 | 0.16 | 0.00 | 57 | 1006.6 |
| 20260509193501 | 0 | 240 | 11.0 | 17.0 | 0.00 | 0.16 | 0.00 | 61 | 1006.7 |
| 20260509193002 | 0 | 246 | 10.0 | 17.0 | 0.00 | 0.16 | 0.00 | 62 | 1006.7 |
| 20260509192501 | 0 | 278 | 12.0 | 17.0 | 0.00 | 0.16 | 0.00 | 100 | 1006.7 |
| 20260509192004 | 0 | 258 | 10.0 | 17.0 | 0.00 | 0.16 | 0.00 | 1006.7 | |
| 20260509191502 | 70 | 248 | 10.0 | 19.0 | 0.00 | 0.16 | 0.00 | 65 | 1006.6 |
| 20260509191002 | 70 | 255 | 10.0 | 16.0 | 0.00 | 0.16 | 0.00 | 64 | 1006.7 |
| 20260509190005 | 69 | 262 | 11.0 | 15.0 | 0.00 | 0.16 | 0.00 | 66 | 1006.7 |
| 20260509185001 | 0 | 256 | 9.0 | 16.0 | 0.00 | 0.16 | 0.00 | 67 | 1006.9 |
| 20260509184503 | 69 | 252 | 10.0 | 18.0 | 0.00 | 0.16 | 0.00 | 68 | 1006.9 |
| 20260509183501 | 69 | 259 | 12.0 | 18.0 | 0.00 | 0.16 | 0.00 | 67 | 1006.9 |
| 20260509183001 | 69 | 240 | 10.0 | 18.0 | 0.00 | 0.16 | 0.00 | 68 | 1006.9 |
| 20260509182501 | 69 | 205 | 8.0 | 16.0 | 0.00 | 0.16 | 0.00 | 68 | 1006.9 |
| 20260509182002 | 68 | 233 | 11.0 | 16.0 | 0.00 | 0.16 | 0.00 | 67 | 1006.9 |
| 20260509181501 | 68 | 238 | 9.0 | 17.0 | 0.00 | 0.16 | 0.00 | 68 | 1006.9 |
| 20260509180501 | 68 | 224 | 10.0 | 16.0 | 0.00 | 0.16 | 0.00 | 66 | 1007.0 |
| 20260509175002 | 67 | 258 | 11.0 | 16.0 | 0.00 | 0.16 | 0.00 | 68 | 1007.0 |
| 20260509174501 | 67 | 260 | 10.0 | 16.0 | 0.00 | 0.16 | 0.00 | 69 | 1007.0 |
| 20260509174001 | 67 | 221 | 9.0 | 19.0 | 0.00 | 0.16 | 0.00 | 68 | 1007.0 |
| 20260509173002 | 66 | 257 | 9.0 | 19.0 | 0.00 | 0.16 | 0.00 | 69 | 1007.0 |
| 20260509172501 | 66 | 165 | 10.0 | 19.0 | 0.00 | 0.16 | 0.00 | 69 | 1007.2 |
| 20260509172001 | 66 | 238 | 10.0 | 18.0 | 0.00 | 0.16 | 0.00 | 71 | 1007.2 |
| 20260509171502 | 66 | 173 | 10.0 | 20.0 | 0.00 | 0.16 | 0.00 | 70 | 1007.2 |
| 20260509171002 | 66 | 222 | 12.0 | 20.0 | 0.00 | 0.16 | 0.00 | 70 | 1007.3 |
| 20260509170004 | 65 | 220 | 10.0 | 15.0 | 0.00 | 0.16 | 0.00 | 72 | 1007.2 |
| 20260509165502 | 65 | 243 | 9.0 | 19.0 | 0.00 | 0.16 | 0.00 | 74 | 1007.2 |
| 20260509165002 | 65 | 244 | 12.0 | 19.0 | 0.00 | 0.16 | 0.00 | 69 | 1007.2 |
| 20260509164501 | 65 | 256 | 10.0 | 18.0 | 0.00 | 0.16 | 0.00 | 72 | 1007.2 |
| 20260509164005 | 64 | 162 | 10.0 | 18.0 | 0.00 | 0.16 | 0.00 | 73 | 1007.3 |
| 20260509163501 | 64 | 198 | 10.0 | 15.0 | 0.00 | 0.16 | 0.00 | 74 | 1007.3 |
| 20260509163001 | 64 | 269 | 10.0 | 19.0 | 0.00 | 0.16 | 0.00 | 74 | 1007.2 |
| 20260509162502 | 64 | 235 | 9.0 | 19.0 | 0.00 | 0.16 | 0.00 | 76 | 1007.2 |
| 20260509162002 | 64 | 250 | 10.0 | 18.0 | 0.00 | 0.16 | 0.00 | 75 | 1007.3 |
| 20260509161501 | 63 | 220 | 10.0 | 16.0 | 0.00 | 0.16 | 0.00 | 75 | 1007.4 |
| 20260509161004 | 63 | 255 | 10.0 | 19.0 | 0.00 | 0.16 | 0.00 | 75 | 1007.5 |
| 20260509160501 | 63 | 242 | 10.0 | 19.0 | 0.00 | 0.16 | 0.00 | 76 | 1007.5 |
| 20260509160006 | 63 | 248 | 9.0 | 16.0 | 0.00 | 0.16 | 0.00 | 78 | 1007.5 |
| 20260509155501 | 63 | 238 | 11.0 | 16.0 | 0.00 | 0.16 | 0.00 | 75 | 1007.5 |
| 20260509155001 | 62 | 262 | 9.0 | 18.0 | 0.00 | 0.16 | 0.00 | 77 | 1007.4 |
| 20260509154002 | 62 | 228 | 10.0 | 14.0 | 0.00 | 0.16 | 0.00 | 76 | 1007.3 |
| 20260509151501 | 61 | 198 | 8.0 | 14.0 | 0.00 | 0.16 | 0.00 | 77 | 1007.3 |
| 20260509151002 | 61 | 241 | 9.0 | 16.0 | 0.00 | 0.16 | 0.00 | 79 | 1007.3 |
| 20260509150503 | 61 | 220 | 7.0 | 16.0 | 0.00 | 0.16 | 0.00 | 78 | 1007.2 |
| 20260509145000 | 60 | 233 | 7.0 | 14.0 | 0.00 | 0.16 | 0.00 | 80 | 1007.2 |
| 20260509144500 | 60 | 256 | 8.0 | 16.0 | 0.00 | 0.16 | 0.00 | 79 | 1007.2 |
| 20260509144001 | 60 | 218 | 8.0 | 17.0 | 0.00 | 0.16 | 0.00 | 80 | 1007.3 |
| 20260509143503 | 60 | 271 | 10.0 | 17.0 | 0.00 | 0.16 | 0.00 | 80 | 1007.4 |
| 20260509143001 | 60 | 217 | 10.0 | 14.0 | 0.00 | 0.16 | 0.00 | 80 | 1007.5 |
| 20260509142500 | 60 | 231 | 7.0 | 15.0 | 0.00 | 0.16 | 0.00 | 81 | 1007.3 |
| 20260509142001 | 60 | 244 | 7.0 | 12.0 | 0.00 | 0.16 | 0.00 | 81 | 1007.4 |
| 20260509141501 | 60 | 217 | 8.0 | 12.0 | 0.00 | 0.16 | 0.00 | 82 | 1007.5 |
| 20260509140004 | 59 | 229 | 8.0 | 13.0 | 0.00 | 0.16 | 0.00 | 79 | 1007.5 |
| 20260509135000 | 59 | 260 | 9.0 | 13.0 | 0.00 | 0.16 | 0.00 | 78 | 1007.4 |
| 20260509134500 | 59 | 250 | 7.0 | 11.0 | 0.00 | 0.16 | 0.00 | 79 | 1007.4 |
| 20260509134001 | 59 | 261 | 7.0 | 13.0 | 0.00 | 0.16 | 0.00 | 79 | 1007.4 |
| 20260509133501 | 59 | 236 | 7.0 | 13.0 | 0.00 | 0.16 | 0.00 | 80 | 1007.3 |
| 20260509133001 | 59 | 248 | 5.0 | 12.0 | 0.00 | 0.16 | 0.00 | 83 | 1007.1 |
| 20260509132500 | 59 | 232 | 7.0 | 12.0 | 0.00 | 0.16 | 0.00 | 81 | 1007.1 |
| 20260509132000 | 59 | 262 | 6.0 | 12.0 | 0.00 | 0.16 | 0.00 | 82 | 1007.1 |
| 20260509131500 | 58 | 253 | 5.0 | 10.0 | 0.00 | 0.16 | 0.00 | 84 | 1007.1 |
| 20260509131002 | 58 | 243 | 5.0 | 9.0 | 0.00 | 0.16 | 0.00 | 85 | 1007.1 |
| 20260509130501 | 58 | 211 | 6.0 | 9.0 | 0.00 | 0.16 | 0.00 | 86 | 1007.1 |
| 20260509130004 | 58 | 250 | 5.0 | 9.0 | 0.00 | 0.16 | 0.00 | 1007.1 | |
| 20260509125500 | 57 | 211 | 5.0 | 8.0 | 0.00 | 0.16 | 0.00 | 1007.0 | |
| 20260509125001 | 0 | 165 | 5.0 | 9.0 | 0.00 | 0.16 | 0.00 | 87 | 1007.1 |
| 20260509124500 | 57 | 219 | 5.0 | 9.0 | 0.00 | 0.16 | 0.00 | 88 | 1007.2 |
| 20260509124000 | 57 | 202 | 4.0 | 8.0 | 0.00 | 0.16 | 0.00 | 88 | 1007.3 |
| 20260509123501 | 56 | 165 | 4.0 | 8.0 | 0.00 | 0.16 | 0.00 | 88 | 1007.2 |
| 20260509123002 | 56 | 167 | 5.0 | 8.0 | 0.00 | 0.16 | 0.00 | 89 | 1007.3 |
| 20260509122500 | 55 | 188 | 5.0 | 7.0 | 0.00 | 0.16 | 0.00 | 1007.4 | |
| 20260509121500 | 55 | 200 | 4.0 | 6.0 | 0.00 | 0.16 | 0.00 | 1007.3 | |
| 20260509121000 | 55 | 214 | 3.0 | 5.0 | 0.00 | 0.16 | 0.00 | 91 | 1007.4 |
| 20260509120500 | 54 | 211 | 2.0 | 5.0 | 0.00 | 0.16 | 0.00 | 92 | 1007.5 |
| 20260509120004 | 54 | 251 | 3.0 | 5.0 | 0.00 | 0.16 | 0.00 | 92 | 1007.4 |
| 20260509115500 | 54 | 190 | 2.0 | 5.0 | 0.00 | 0.16 | 0.00 | 93 | 1007.4 |
| 20260509115000 | 54 | 158 | 3.0 | 5.0 | 0.00 | 0.16 | 0.00 | 1007.4 | |
| 20260509114501 | 0 | 209 | 1.0 | 4.0 | 0.00 | 0.16 | 0.00 | 94 | 1007.4 |
| 20260509114001 | 53 | 261 | 1.0 | 4.0 | 0.00 | 0.16 | 0.00 | 1 | 1007.3 |
| 20260509112959 | 0 | 207 | 2.0 | 4.0 | 0.00 | 0.16 | 0.00 | 1 | 1007.1 |
| 20260509112500 | 0 | 178 | 2.0 | 4.0 | 0.00 | 0.16 | 0.00 | 94 | 1007.0 |
| 20260509112000 | 52 | 212 | 2.0 | 4.0 | 0.00 | 0.16 | 0.00 | 1006.9 | |
| 20260509111501 | 52 | 196 | 2.0 | 4.0 | 0.00 | 0.16 | 0.00 | 94 | 1006.9 |
| 20260509111000 | 52 | 175 | 2.0 | 3.0 | 0.00 | 0.16 | 0.00 | 94 | 1007.0 |
| 20260509105500 | 52 | 200 | 1.0 | 3.0 | 0.00 | 0.16 | 0.00 | 94 | 1007.0 |
| 20260509104501 | 52 | 224 | 1.0 | 3.0 | 0.00 | 0.16 | 0.00 | 94 | 1007.0 |
| 20260509104001 | 0 | 229 | 1.0 | 3.0 | 0.00 | 0.16 | 0.00 | 94 | 1006.9 |
| 20260509103500 | 52 | 220 | 1.0 | 4.0 | 0.00 | 0.16 | 0.00 | 93 | 1007.0 |
| 20260509103001 | 52 | 214 | 2.0 | 4.0 | 0.00 | 0.16 | 0.00 | 93 | 1007.0 |
| 20260509102001 | 53 | 225 | 2.0 | 6.0 | 0.00 | 0.16 | 0.00 | 93 | 1007.1 |
| 20260509100500 | 53 | 252 | 2.0 | 6.0 | 0.00 | 0.16 | 0.00 | 93 | 1007.1 |
| 20260509100004 | 53 | 232 | 3.0 | 7.0 | 0.00 | 0.16 | 0.00 | 93 | 1007.2 |
| 20260509095500 | 53 | 197 | 3.0 | 7.0 | 0.00 | 0.16 | 0.00 | 93 | 1007.0 |
| 20260509094501 | 53 | 238 | 2.0 | 6.0 | 0.00 | 0.16 | 0.00 | 94 | 1007.0 |
| 20260509093500 | 53 | 221 | 2.0 | 6.0 | 0.00 | 0.16 | 0.00 | 94 | 1007.0 |
| 20260509093000 | 0 | 236 | 3.0 | 6.0 | 0.00 | 0.16 | 0.00 | 94 | 1006.9 |
| 20260509092502 | 53 | 188 | 2.0 | 5.0 | 0.00 | 0.16 | 0.00 | 94 | 1007.0 |
| 20260509091000 | 53 | 229 | 2.0 | 4.0 | 0.00 | 0.16 | 0.00 | 94 | 1007.0 |
| 20260509090549 | 53 | 214 | 2.0 | 4.0 | 0.00 | 0.16 | 0.00 | 94 | 1007.0 |
| 20260509090003 | 53 | 203 | 2.0 | 4.0 | 0.00 | 0.16 | 0.00 | 94 | 1007.1 |
| 20260509085501 | 53 | 227 | 2.0 | 4.0 | 0.00 | 0.16 | 0.00 | 94 | 1007.1 |
| 20260509085000 | 53 | 217 | 2.0 | 4.0 | 0.00 | 0.16 | 0.00 | 94 | 1007.0 |
| 20260509084000 | 53 | 221 | 2.0 | 5.0 | 0.00 | 0.16 | 0.00 | 94 | 1007.0 |
| 20260509082500 | 53 | 228 | 2.0 | 6.0 | 0.00 | 0.16 | 0.00 | 94 | 1006.9 |
| 20260509082000 | 53 | 212 | 1.0 | 4.0 | 0.00 | 0.16 | 0.00 | 94 | 1006.9 |
| 20260509081500 | 53 | 210 | 2.0 | 4.0 | 0.00 | 0.16 | 0.00 | 94 | 1006.9 |
| 20260509081001 | 53 | 207 | 1.0 | 5.0 | 0.00 | 0.16 | 0.00 | 93 | 1006.9 |
| 20260509080500 | 53 | 216 | 2.0 | 5.0 | 0.00 | 0.16 | 0.00 | 93 | 1007.0 |
| 20260509080003 | 54 | 222 | 1.0 | 3.0 | 0.00 | 0.16 | 0.00 | 93 | 1007.0 |
| 20260509075500 | 54 | 229 | 1.0 | 3.0 | 0.00 | 0.16 | 0.00 | 93 | 1007.1 |
| 20260509074500 | 54 | 217 | 1.0 | 4.0 | 0.00 | 0.16 | 0.00 | 93 | 1007.2 |
| 20260509074000 | 54 | 207 | 2.0 | 5.0 | 0.00 | 0.16 | 0.00 | 93 | 1007.2 |
| 20260509073500 | 54 | 236 | 3.0 | 5.0 | 0.00 | 0.16 | 0.00 | 93 | 1007.3 |
| 20260509072500 | 54 | 193 | 1.0 | 4.0 | 0.00 | 0.16 | 0.00 | 93 | 1007.5 |
| 20260509072001 | 54 | 199 | 2.0 | 4.0 | 0.00 | 0.16 | 0.00 | 93 | 1007.5 |
| 20260509071500 | 54 | 224 | 1.0 | 4.0 | 0.00 | 0.16 | 0.00 | 93 | 1007.6 |
| 20260509071000 | 54 | 209 | 1.0 | 5.0 | 0.00 | 0.16 | 0.00 | 93 | 1007.6 |